WIZ72A EGBB-EDDW

Flight info

Callsign WIZ72A
Flight time 1h 28m
Altitude 37000
Route DTY L10 BPK Q295 BRAIN M197 REDFA L620 TULIP Y12 SPY N873 ANDIK M105 REVLA DCT GIBMA GIBMA2P
Aircraft A320/M-SDE3FGHIRWY/LB1

Departure

Time 2026-05-07 19:04
Airport Birmingham Airport (EGBB)

Arrival

Time 2026-05-07 20:32
Airport Bremen Airport (EDDW)
Time Latitude Longitude Altitude Speed Heading
2026-05-07 18:42 52.45397 -1.73979 329 ft 0 kts 26°
2026-05-07 18:59 52.45398 -1.73977 325 ft 1 kts 34°
2026-05-07 18:59 52.45396 -1.73969 326 ft 0 kts 96°
2026-05-07 18:59 52.45388 -1.73959 327 ft 5 kts 139°
2026-05-07 19:00 52.45333 -1.73947 328 ft 11 kts 198°
2026-05-07 19:00 52.45326 -1.74086 327 ft 18 kts 301°
2026-05-07 19:00 52.45395 -1.74303 326 ft 25 kts 297°
2026-05-07 19:00 52.45484 -1.74580 325 ft 28 kts 306°
2026-05-07 19:01 52.45648 -1.74759 324 ft 29 kts 320°
2026-05-07 19:01 52.45809 -1.74948 323 ft 19 kts 327°
2026-05-07 19:01 52.45927 -1.75076 322 ft 22 kts 324°
2026-05-07 19:01 52.46060 -1.75225 320 ft 24 kts 326°
2026-05-07 19:02 52.46184 -1.75361 318 ft 17 kts 326°
2026-05-07 19:02 52.46210 -1.75482 317 ft 13 kts 241°
2026-05-07 19:02 52.46157 -1.75606 318 ft 11 kts 234°
2026-05-07 19:02 52.46127 -1.75620 318 ft 5 kts 159°
2026-05-07 19:03 52.46056 -1.75546 318 ft 25 kts 146°
2026-05-07 19:03 52.45679 -1.75131 322 ft 106 kts 146°
2026-05-07 19:03 52.44887 -1.74244 326 ft 167 kts 146°
2026-05-07 19:03 52.43840 -1.73129 884 ft 178 kts 148°
2026-05-07 19:04 52.42836 -1.72030 1917 ft 174 kts 147°
2026-05-07 19:04 52.41841 -1.70918 2679 ft 173 kts 147°
2026-05-07 19:04 52.40807 -1.69841 3152 ft 183 kts 158°
2026-05-07 19:04 52.39535 -1.69103 3371 ft 205 kts 156°
2026-05-07 19:05 52.38470 -1.67446 3661 ft 227 kts 124°
2026-05-07 19:05 52.37590 -1.65134 4024 ft 250 kts 123°
2026-05-07 19:05 52.36655 -1.62668 4750 ft 259 kts 123°
2026-05-07 19:05 52.35693 -1.60136 5588 ft 264 kts 123°
2026-05-07 19:06 52.34709 -1.57563 6414 ft 270 kts 124°
2026-05-07 19:06 52.32682 -1.52312 7998 ft 279 kts 124°
2026-05-07 19:06 52.31633 -1.49609 8803 ft 283 kts 124°
2026-05-07 19:07 52.30567 -1.46873 9587 ft 288 kts 124°
2026-05-07 19:07 52.29481 -1.44089 10313 ft 293 kts 124°
2026-05-07 19:07 52.28348 -1.41191 10599 ft 314 kts 124°
2026-05-07 19:07 52.27130 -1.38079 10760 ft 337 kts 124°
2026-05-07 19:08 52.25843 -1.34790 11144 ft 349 kts 124°
2026-05-07 19:08 52.24528 -1.31435 11769 ft 353 kts 124°
2026-05-07 19:08 52.23203 -1.28054 12425 ft 356 kts 124°
2026-05-07 19:08 52.21863 -1.24639 13089 ft 359 kts 125°
2026-05-07 19:09 52.20523 -1.21230 13758 ft 362 kts 125°
2026-05-07 19:09 52.19161 -1.17763 14361 ft 365 kts 125°
2026-05-07 19:09 52.19055 -1.17491 14411 ft 365 kts 125°
2026-05-07 19:09 52.18743 -1.16697 14526 ft 366 kts 125°
2026-05-07 19:10 52.18493 -1.16059 14628 ft 366 kts 125°
2026-05-07 19:10 52.17112 -1.12548 15177 ft 370 kts 125°
2026-05-07 19:10 52.15707 -1.09000 15711 ft 373 kts 125°
2026-05-07 19:10 52.14296 -1.05438 16231 ft 377 kts 125°
2026-05-07 19:11 52.13355 -1.03060 16567 ft 379 kts 125°
2026-05-07 19:11 52.11919 -0.99433 17109 ft 383 kts 125°
2026-05-07 19:11 52.10469 -0.95778 17639 ft 386 kts 124°
2026-05-07 19:11 52.08523 -0.90899 18345 ft 390 kts 124°
2026-05-07 19:12 52.07035 -0.87176 18818 ft 394 kts 125°
2026-05-07 19:12 52.06023 -0.84645 19136 ft 396 kts 125°
2026-05-07 19:12 52.04541 -0.80935 19630 ft 399 kts 125°
2026-05-07 19:12 52.03023 -0.77136 19976 ft 402 kts 125°
2026-05-07 19:13 52.01500 -0.73331 20041 ft 402 kts 125°
2026-05-07 19:13 51.99973 -0.69528 20057 ft 402 kts 125°
2026-05-07 19:13 51.98610 -0.65574 20050 ft 404 kts 113°
2026-05-07 19:13 51.97963 -0.61131 20083 ft 409 kts 94°
2026-05-07 19:14 51.98147 -0.56510 20552 ft 414 kts 83°
2026-05-07 19:14 51.98544 -0.51886 21053 ft 416 kts 83°
2026-05-07 19:14 51.98953 -0.47219 21507 ft 419 kts 83°
2026-05-07 19:14 51.99368 -0.42520 21944 ft 422 kts 83°
2026-05-07 19:15 51.99785 -0.37778 22371 ft 425 kts 83°
2026-05-07 19:15 52.00196 -0.33073 22796 ft 428 kts 83°
2026-05-07 19:15 52.00612 -0.28286 23218 ft 431 kts 83°
2026-05-07 19:15 52.01030 -0.23453 23632 ft 434 kts 83°
2026-05-07 19:16 52.01444 -0.18600 23984 ft 437 kts 83°
2026-05-07 19:16 52.01862 -0.13697 24346 ft 439 kts 83°
2026-05-07 19:16 52.02280 -0.08779 24692 ft 441 kts 83°
2026-05-07 19:16 52.02698 -0.03826 25037 ft 444 kts 83°
2026-05-07 19:17 52.03116 0.01161 25383 ft 446 kts 83°
2026-05-07 19:17 52.03533 0.06158 25698 ft 449 kts 83°
2026-05-07 19:17 52.03952 0.11212 26035 ft 451 kts 83°
2026-05-07 19:17 52.04369 0.16283 26372 ft 454 kts 83°
2026-05-07 19:18 52.04783 0.21364 26732 ft 456 kts 83°
2026-05-07 19:18 52.05202 0.26485 27084 ft 458 kts 83°
2026-05-07 19:18 52.05620 0.31569 27421 ft 461 kts 83°
2026-05-07 19:18 52.06039 0.36732 27759 ft 463 kts 83°
2026-05-07 19:19 52.06455 0.41929 28098 ft 465 kts 83°
2026-05-07 19:19 52.06872 0.47162 28454 ft 466 kts 83°
2026-05-07 19:19 52.07288 0.52373 28920 ft 465 kts 83°
2026-05-07 19:19 52.07703 0.57582 29405 ft 464 kts 83°
2026-05-07 19:20 52.08113 0.62782 29879 ft 463 kts 83°
2026-05-07 19:20 52.08516 0.67979 30318 ft 463 kts 83°
2026-05-07 19:20 52.08918 0.73169 30718 ft 462 kts 83°
2026-05-07 19:20 52.09337 0.78581 31132 ft 461 kts 83°
2026-05-07 19:21 52.09711 0.83445 31508 ft 461 kts 83°
2026-05-07 19:21 52.10102 0.88574 31899 ft 460 kts 83°
2026-05-07 19:21 52.10488 0.93682 32294 ft 460 kts 84°
2026-05-07 19:21 52.10880 0.98905 32697 ft 459 kts 84°
2026-05-07 19:22 52.11263 1.04060 33129 ft 458 kts 84°
2026-05-07 19:22 52.11646 1.09197 33553 ft 457 kts 84°
2026-05-07 19:22 52.12029 1.14335 33962 ft 457 kts 84°
2026-05-07 19:22 52.12411 1.19460 34306 ft 456 kts 84°
2026-05-07 19:23 52.12788 1.24581 34617 ft 456 kts 84°
2026-05-07 19:23 52.13160 1.29694 34918 ft 456 kts 84°
2026-05-07 19:23 52.13527 1.34758 35210 ft 456 kts 84°
2026-05-07 19:23 52.13894 1.39872 35503 ft 455 kts 84°
2026-05-07 19:24 52.14257 1.44996 35786 ft 455 kts 84°
2026-05-07 19:24 52.14615 1.50099 36075 ft 455 kts 84°
2026-05-07 19:24 52.14973 1.55228 36353 ft 454 kts 84°
2026-05-07 19:24 52.15331 1.60333 36624 ft 454 kts 84°
2026-05-07 19:25 52.15689 1.65428 36887 ft 454 kts 84°
2026-05-07 19:25 52.16044 1.70544 37067 ft 455 kts 84°
2026-05-07 19:25 52.16752 1.80878 37105 ft 463 kts 84°
2026-05-07 19:26 52.17459 1.91341 37098 ft 465 kts 85°
2026-05-07 19:26 52.18153 2.01760 37097 ft 465 kts 85°
2026-05-07 19:27 52.18837 2.12249 37106 ft 465 kts 85°
2026-05-07 19:27 52.19517 2.22734 37105 ft 465 kts 85°
2026-05-07 19:28 52.20196 2.33228 37109 ft 466 kts 85°
2026-05-07 19:28 52.20862 2.43720 37110 ft 466 kts 85°
2026-05-07 19:29 52.21509 2.54155 37106 ft 466 kts 85°
2026-05-07 19:29 52.22148 2.64654 37111 ft 465 kts 85°
2026-05-07 19:30 52.22785 2.75175 37113 ft 465 kts 85°
2026-05-07 19:30 52.23413 2.85668 37115 ft 465 kts 85°
2026-05-07 19:31 52.24020 2.96116 37105 ft 465 kts 85°
2026-05-07 19:31 52.24621 3.06635 37123 ft 465 kts 85°
2026-05-07 19:32 52.25219 3.17146 37132 ft 465 kts 86°
2026-05-07 19:32 52.26229 3.27535 37132 ft 465 kts 74°
2026-05-07 19:33 52.28098 3.37650 37126 ft 466 kts 74°
2026-05-07 19:33 52.29935 3.47712 37117 ft 466 kts 74°
2026-05-07 19:34 52.31778 3.57854 37120 ft 465 kts 74°
2026-05-07 19:34 52.33616 3.68037 37121 ft 465 kts 74°
2026-05-07 19:35 52.35426 3.78153 37118 ft 465 kts 74°
2026-05-07 19:35 52.37233 3.88305 37117 ft 465 kts 74°
2026-05-07 19:36 52.39025 3.98384 37108 ft 465 kts 74°
2026-05-07 19:36 52.40821 4.08563 37119 ft 465 kts 75°
2026-05-07 19:37 52.42599 4.18743 37120 ft 465 kts 75°
2026-05-07 19:37 52.44163 4.27694 37106 ft 465 kts 75°
2026-05-07 19:38 52.45925 4.37794 37116 ft 464 kts 75°
2026-05-07 19:38 52.47695 4.48048 37123 ft 464 kts 75°
2026-05-07 19:39 52.49423 4.58160 37112 ft 463 kts 75°
2026-05-07 19:39 52.51150 4.68335 37109 ft 463 kts 75°
2026-05-07 19:40 52.52870 4.78536 37106 ft 463 kts 75°
2026-05-07 19:40 52.55487 4.88163 37105 ft 464 kts 57°
2026-05-07 19:41 52.59423 4.96561 37109 ft 464 kts 51°
2026-05-07 19:41 52.63429 5.04908 37104 ft 464 kts 52°
2026-05-07 19:42 52.67380 5.13225 37114 ft 464 kts 52°
2026-05-07 19:42 52.71361 5.21608 37128 ft 464 kts 52°
2026-05-07 19:43 52.74695 5.30662 37123 ft 462 kts 69°
2026-05-07 19:43 52.76880 5.40608 37122 ft 461 kts 71°
2026-05-07 19:44 52.79034 5.50571 37116 ft 461 kts 71°
2026-05-07 19:44 52.81176 5.60555 37120 ft 461 kts 71°
2026-05-07 19:45 52.83291 5.70506 37108 ft 462 kts 71°
2026-05-07 19:45 52.85413 5.80518 37120 ft 462 kts 71°
2026-05-07 19:46 52.87222 5.90686 37122 ft 459 kts 83°
2026-05-07 19:46 52.88057 6.01159 37119 ft 459 kts 84°
2026-05-07 19:47 52.88865 6.11618 37113 ft 458 kts 84°
2026-05-07 19:47 52.89647 6.22050 37139 ft 455 kts 84°
2026-05-07 19:48 52.90412 6.32347 37140 ft 452 kts 84°
2026-05-07 19:48 52.90803 6.37586 36644 ft 454 kts 84°
2026-05-07 19:48 52.91185 6.42719 36020 ft 455 kts 84°
2026-05-07 19:49 52.91567 6.47905 35460 ft 454 kts 84°
2026-05-07 19:49 52.91951 6.53104 34916 ft 453 kts 84°
2026-05-07 19:49 52.92329 6.58266 34384 ft 451 kts 84°
2026-05-07 19:49 52.92701 6.63414 33779 ft 450 kts 84°
2026-05-07 19:50 52.93073 6.68575 33065 ft 451 kts 84°
2026-05-07 19:50 52.93442 6.73734 32311 ft 452 kts 84°
2026-05-07 19:50 52.93809 6.78914 31539 ft 453 kts 84°
2026-05-07 19:50 52.94174 6.84129 30749 ft 455 kts 84°
2026-05-07 19:51 52.94540 6.89341 29933 ft 457 kts 84°
2026-05-07 19:51 52.94905 6.94577 29172 ft 455 kts 84°
2026-05-07 19:51 52.95258 6.99696 28545 ft 451 kts 84°
2026-05-07 19:51 52.95609 7.04836 27912 ft 446 kts 84°
2026-05-07 19:52 52.95955 7.09927 27285 ft 442 kts 84°
2026-05-07 19:52 52.96294 7.14959 26642 ft 438 kts 84°
2026-05-07 19:52 52.96629 7.19969 26052 ft 435 kts 84°
2026-05-07 19:52 52.96960 7.24942 25465 ft 431 kts 84°
2026-05-07 19:53 52.97285 7.29857 24885 ft 428 kts 84°
2026-05-07 19:53 52.97605 7.34742 24341 ft 424 kts 84°
2026-05-07 19:53 52.97923 7.39581 23768 ft 421 kts 84°
2026-05-07 19:53 52.98238 7.44387 23131 ft 417 kts 84°
2026-05-07 19:54 52.98549 7.49151 22532 ft 414 kts 84°
2026-05-07 19:54 52.98855 7.53886 21930 ft 410 kts 84°
2026-05-07 19:54 52.99153 7.58564 21390 ft 406 kts 84°
2026-05-07 19:54 52.99442 7.63155 20845 ft 403 kts 84°
2026-05-07 19:55 52.99733 7.67782 20341 ft 400 kts 84°
2026-05-07 19:55 53.00019 7.72316 19966 ft 393 kts 84°
2026-05-07 19:55 53.00298 7.76747 19831 ft 379 kts 84°
2026-05-07 19:55 53.00562 7.81027 19598 ft 368 kts 84°
2026-05-07 19:56 53.00826 7.85336 18643 ft 380 kts 84°
2026-05-07 19:56 53.01092 7.89722 17932 ft 383 kts 84°
2026-05-07 19:56 53.01358 7.94109 17331 ft 381 kts 84°
2026-05-07 19:56 53.01622 7.98472 16770 ft 378 kts 84°
2026-05-07 19:57 53.01884 8.02798 16209 ft 375 kts 84°
2026-05-07 19:57 53.02140 8.07083 15656 ft 372 kts 84°
2026-05-07 19:57 53.02395 8.11334 15115 ft 369 kts 84°
2026-05-07 19:57 53.02642 8.15498 14602 ft 366 kts 84°
2026-05-07 19:58 53.02887 8.19695 14057 ft 365 kts 84°
2026-05-07 19:58 53.03130 8.23874 13469 ft 363 kts 84°
2026-05-07 19:58 53.03526 8.27991 12933 ft 359 kts 75°
2026-05-07 19:58 53.04356 8.31870 12393 ft 355 kts 64°
2026-05-07 19:59 53.05575 8.35406 11866 ft 351 kts 57°
2026-05-07 19:59 53.06880 8.38805 11355 ft 348 kts 57°
2026-05-07 19:59 53.08166 8.42185 10924 ft 344 kts 57°
2026-05-07 19:59 53.09442 8.45557 10658 ft 344 kts 57°
2026-05-07 20:00 53.10708 8.48915 10324 ft 341 kts 57°
2026-05-07 20:00 53.11958 8.52234 9915 ft 338 kts 58°
2026-05-07 20:00 53.13174 8.55475 9499 ft 332 kts 58°
2026-05-07 20:00 53.14553 8.58509 9063 ft 326 kts 42°
2026-05-07 20:01 53.16461 8.60437 8655 ft 322 kts 19°
2026-05-07 20:01 53.18655 8.60924 8237 ft 320 kts 355°
2026-05-07 20:01 53.20769 8.59894 7823 ft 318 kts 332°
2026-05-07 20:01 53.22447 8.57518 7415 ft 318 kts 308°
2026-05-07 20:02 53.23390 8.54235 7013 ft 317 kts 283°
2026-05-07 20:02 53.23444 8.50585 6613 ft 315 kts 258°
2026-05-07 20:02 53.22708 8.47178 6197 ft 312 kts 245°
2026-05-07 20:02 53.21799 8.43944 5778 ft 301 kts 244°
2026-05-07 20:03 53.20912 8.40855 5346 ft 289 kts 244°
2026-05-07 20:03 53.20070 8.37928 4970 ft 279 kts 244°
2026-05-07 20:03 53.19238 8.35043 4623 ft 275 kts 244°
2026-05-07 20:03 53.18411 8.32174 4405 ft 274 kts 244°
2026-05-07 20:04 53.17585 8.29306 4255 ft 274 kts 244°
2026-05-07 20:04 53.16763 8.26442 4082 ft 273 kts 244°
2026-05-07 20:04 53.15941 8.23579 3929 ft 273 kts 244°
2026-05-07 20:04 53.15123 8.20737 3781 ft 272 kts 244°
2026-05-07 20:05 53.14317 8.17936 3626 ft 271 kts 244°
2026-05-07 20:05 53.13511 8.15120 3472 ft 268 kts 244°
2026-05-07 20:05 53.12713 8.12321 3320 ft 267 kts 244°
2026-05-07 20:05 53.11922 8.09543 3167 ft 266 kts 244°
2026-05-07 20:06 53.11130 8.06764 3042 ft 265 kts 244°
2026-05-07 20:06 53.10343 8.04010 3007 ft 265 kts 244°
2026-05-07 20:06 53.09552 8.01246 3011 ft 264 kts 244°
2026-05-07 20:06 53.08648 7.98605 3012 ft 262 kts 227°
2026-05-07 20:07 53.07184 7.96890 3010 ft 259 kts 198°
2026-05-07 20:07 53.05411 7.96591 3015 ft 256 kts 168°
2026-05-07 20:07 53.03810 7.97776 3017 ft 254 kts 139°
2026-05-07 20:07 53.02788 8.00114 3013 ft 252 kts 110°
2026-05-07 20:08 53.02276 8.02859 3008 ft 253 kts 104°
2026-05-07 20:08 53.01833 8.05716 3005 ft 253 kts 104°
2026-05-07 20:08 53.01403 8.08558 3006 ft 253 kts 104°
2026-05-07 20:08 53.00981 8.11356 3012 ft 253 kts 104°
2026-05-07 20:09 53.00550 8.14229 3012 ft 253 kts 103°
2026-05-07 20:09 53.00245 8.17076 3020 ft 250 kts 94°
2026-05-07 20:09 53.00346 8.19891 3013 ft 249 kts 71°
2026-05-07 20:10 53.02131 8.24842 3016 ft 250 kts 58°
2026-05-07 20:10 53.03041 8.27302 3010 ft 250 kts 65°
2026-05-07 20:10 53.03481 8.30074 3014 ft 249 kts 84°
2026-05-07 20:10 53.03576 8.32954 3009 ft 250 kts 88°
2026-05-07 20:11 53.03630 8.35838 3017 ft 250 kts 88°
2026-05-07 20:11 53.03700 8.38716 3012 ft 250 kts 87°
2026-05-07 20:11 53.03776 8.41592 3016 ft 249 kts 87°
2026-05-07 20:11 53.03852 8.44473 3030 ft 249 kts 88°
2026-05-07 20:12 53.03923 8.47240 3017 ft 232 kts 87°
2026-05-07 20:12 53.03987 8.49777 3018 ft 207 kts 88°
2026-05-07 20:12 53.04045 8.52044 2982 ft 189 kts 88°
2026-05-07 20:12 53.04099 8.54192 2801 ft 185 kts 88°
2026-05-07 20:13 53.04151 8.56314 2662 ft 182 kts 88°
2026-05-07 20:13 53.04204 8.58437 2376 ft 184 kts 88°
2026-05-07 20:13 53.04256 8.60538 2106 ft 180 kts 88°
2026-05-07 20:13 53.04306 8.62585 1841 ft 175 kts 88°
2026-05-07 20:14 53.04354 8.64582 1604 ft 171 kts 89°
2026-05-07 20:14 53.04401 8.66545 1365 ft 169 kts 89°
2026-05-07 20:14 53.04447 8.68482 1134 ft 163 kts 89°
2026-05-07 20:14 53.04490 8.70234 947 ft 147 kts 90°
2026-05-07 20:15 53.04532 8.71904 689 ft 143 kts 89°
2026-05-07 20:15 53.04579 8.73528 513 ft 142 kts 90°
2026-05-07 20:15 53.04613 8.75162 334 ft 141 kts 89°
2026-05-07 20:15 53.04643 8.76779 126 ft 139 kts 90°
2026-05-07 20:16 53.04675 8.78376 34 ft 137 kts 90°
2026-05-07 20:16 53.04695 8.79972 392 ft 140 kts 90°
2026-05-07 20:16 53.04709 8.81632 1013 ft 151 kts 91°
2026-05-07 20:16 53.04730 8.83490 1687 ft 170 kts 88°
2026-05-07 20:17 53.04768 8.85503 2075 ft 183 kts 88°
2026-05-07 20:17 53.04815 8.87746 2429 ft 201 kts 88°
2026-05-07 20:17 53.04858 8.90103 2934 ft 208 kts 88°
2026-05-07 20:17 53.04901 8.92480 3022 ft 208 kts 88°
2026-05-07 20:18 53.04941 8.94867 3040 ft 206 kts 88°
2026-05-07 20:18 53.04983 8.97246 3031 ft 206 kts 88°
2026-05-07 20:18 53.05022 8.99623 3033 ft 205 kts 88°
2026-05-07 20:18 53.05061 9.01987 3025 ft 205 kts 88°
2026-05-07 20:19 53.05101 9.04368 3035 ft 206 kts 88°
2026-05-07 20:19 53.05141 9.06741 3034 ft 205 kts 88°
2026-05-07 20:19 53.05181 9.09114 3030 ft 206 kts 88°
2026-05-07 20:19 53.05217 9.11484 3032 ft 205 kts 88°
2026-05-07 20:20 53.05254 9.13853 3031 ft 205 kts 88°
2026-05-07 20:20 53.05290 9.16200 3030 ft 205 kts 88°
2026-05-07 20:20 53.05358 9.18570 3028 ft 205 kts 79°
2026-05-07 20:20 53.06011 9.20632 3030 ft 206 kts 44°
2026-05-07 20:21 53.07331 9.21694 3036 ft 222 kts 10°
2026-05-07 20:21 53.08870 9.21328 3022 ft 230 kts 336°
2026-05-07 20:21 53.10079 9.19579 3024 ft 236 kts 303°
2026-05-07 20:21 53.10749 9.17075 3027 ft 238 kts 291°
2026-05-07 20:22 53.11278 9.14471 3026 ft 238 kts 289°
2026-05-07 20:22 53.11792 9.11845 3031 ft 239 kts 289°
2026-05-07 20:22 53.12306 9.09215 3031 ft 239 kts 289°
2026-05-07 20:22 53.12816 9.06591 3032 ft 238 kts 289°
2026-05-07 20:23 53.13319 9.03996 3036 ft 239 kts 288°
2026-05-07 20:23 53.13587 9.01239 3030 ft 240 kts 272°
2026-05-07 20:23 53.13590 8.98501 3037 ft 239 kts 269°
2026-05-07 20:23 53.13560 8.95735 3036 ft 239 kts 269°
2026-05-07 20:24 53.13526 8.92957 3027 ft 240 kts 269°
2026-05-07 20:24 53.13493 8.90186 3034 ft 240 kts 269°
2026-05-07 20:24 53.13460 8.87409 3040 ft 240 kts 269°
2026-05-07 20:24 53.13427 8.84628 3033 ft 240 kts 269°
2026-05-07 20:25 53.13394 8.81848 3040 ft 240 kts 269°
2026-05-07 20:25 53.13361 8.79082 3041 ft 239 kts 269°
2026-05-07 20:25 53.13327 8.76303 3041 ft 240 kts 269°
2026-05-07 20:25 53.13294 8.73529 3040 ft 239 kts 269°
2026-05-07 20:26 53.13261 8.70757 3040 ft 239 kts 269°
2026-05-07 20:26 53.13227 8.68028 3029 ft 239 kts 269°
2026-05-07 20:26 53.13195 8.65276 3024 ft 233 kts 269°
2026-05-07 20:26 53.13065 8.62676 2999 ft 219 kts 255°
2026-05-07 20:27 53.12445 8.60416 2972 ft 214 kts 232°
2026-05-07 20:27 53.11434 8.58829 2984 ft 185 kts 207°
2026-05-07 20:27 53.10303 8.58231 2922 ft 164 kts 180°
2026-05-07 20:27 53.09227 8.58520 2616 ft 150 kts 160°
2026-05-07 20:28 53.08232 8.58949 2464 ft 144 kts 162°
2026-05-07 20:28 53.07271 8.59371 2333 ft 142 kts 161°
2026-05-07 20:28 53.06333 8.59861 2262 ft 140 kts 159°
2026-05-07 20:28 53.05400 8.60339 2215 ft 140 kts 161°
2026-05-07 20:29 53.04546 8.61068 2160 ft 138 kts 138°
2026-05-07 20:29 53.03982 8.62338 2094 ft 138 kts 107°
2026-05-07 20:29 53.04021 8.63881 1794 ft 138 kts 73°
2026-05-07 20:29 53.04290 8.65409 1463 ft 137 kts 79°
2026-05-07 20:30 53.04405 8.66975 1245 ft 137 kts 93°
2026-05-07 20:30 53.04427 8.68562 1067 ft 138 kts 86°
2026-05-07 20:30 53.04522 8.70154 921 ft 139 kts 91°
2026-05-07 20:30 53.04579 8.71770 705 ft 141 kts 95°
2026-05-07 20:31 53.04576 8.73385 546 ft 141 kts 89°
2026-05-07 20:31 53.04609 8.75008 337 ft 141 kts 89°
2026-05-07 20:31 53.04639 8.76600 174 ft 139 kts 90°
2026-05-07 20:31 53.04677 8.78208 28 ft 137 kts 89°
2026-05-07 20:32 53.04704 8.79535 20 ft 94 kts 88°
2026-05-07 20:32 53.04716 8.80132 19 ft 36 kts 88°
2026-05-07 20:32 53.04754 8.80435 20 ft 18 kts 22°
2026-05-07 20:32 53.04844 8.80448 16 ft 6 kts 346°
2026-05-07 20:33 53.04888 8.80359 17 ft 13 kts 276°
2026-05-07 20:33 53.04889 8.80204 20 ft 14 kts 269°
2026-05-07 20:33 53.04888 8.80030 20 ft 16 kts 269°
2026-05-07 20:33 53.04879 8.79833 23 ft 17 kts 265°